Regional Weather Roundup
Issued by NWS Huntsville, AL

Home | Current Version | Previous Version | Text Only | Print | Product List | Glossary On
Versions: 1 2 3 4 5 6 7 8 9 10 11 12 13 14 15 16 17 18 19 20 21 22 23 24 25 26 27 28 29 30 31 32 33 34 35 36 37 38 39 40 41 42 43 44 45 46 47 48 49 50
000
ASUS44 KHUN 300910
RWRHUN

WEATHER ROUNDUP FOR THE TENNESSEE VALLEY
NATIONAL WEATHER SERVICE HUNTSVILLE AL
400 AM CDT MON MAY 30 2016

ALZ001>004-301000-
NORTHWEST ALABAMA

CITY           SKY/WX    TMP DP  RH WIND       PRES   REMARKS
RUSSELLVILLE     N/A     63 N/A N/A MISG        N/A
SHOALS AIRPORT PTCLDY    67  64  90 CALM      30.03F
SHOALS TVA RES   N/A     66 N/A N/A MISG        N/A
$$

ALZ005>007-016-301000-
NORTH CENTRAL ALABAMA

CITY           SKY/WX    TMP DP  RH WIND       PRES   REMARKS
CULLMAN AG STN   N/A     66 N/A N/A CALM        N/A
DECATUR AP     CLEAR     65  64  97 CALM      30.03F
HUNTSVILLE AP  CLEAR     66  61  84 CALM      30.02F
HUN NWS/UAH      N/A     69  64  81 CALM        N/A
MERIDIANVILLE  CLEAR     64  61  88 CALM      30.04S
REDSTONE ARSN  CLEAR     66  64  92 CALM      30.02F
VINEMONT AP    FAIR      62  61  97 CALM      30.05F
$$

ALZ008>010-301000-
NORTHEAST ALABAMA

CITY           SKY/WX    TMP DP  RH WIND       PRES   REMARKS
FORT PAYNE     CLEAR     63  59  88 CALM      30.04R
SCOTTSBORO AP  PTCLDY    66  66 100 CALM      30.04R
SCOTTSBORO HCN   N/A     64 N/A N/A MISG        N/A
VALLEY HEAD      N/A     63 N/A N/A MISG        N/A
$$

TNZ076-096-097-301000-
SOUTHEASTERN MIDDLE TENNESSEE

CITY           SKY/WX    TMP DP  RH WIND       PRES   REMARKS
TULLAHOMA      CLEAR     64  64 100 CALM      30.06S
WINCHESTER     CLEAR     63  61  94 CALM      30.05F
$$

...SURROUNDING SITES...

CITY           SKY/WX    TMP DP  RH WIND       PRES   REMARKS
ATLANTA        PTCLDY    68  62  81 SW5       30.03S
ANNISTON       CLEAR     66  63  90 CALM      30.02S
BIRMINGHAM     CLEAR     68  64  87 CALM      30.04F
CHATTANOOGA    PTCLDY    69  64  84 CALM      30.03S
DALTON         PTCLDY    63  63 100 CALM      30.03S
GADSDEN        CLEAR     64  63  96 CALM      30.02F
GOLDEN TRNGL   CLEAR     72  64  78 CALM      30.01S
HALEYVILLE     FAIR      63  62  97 CALM      30.05F
JACKSON TN     CLOUDY    68  66  93 CALM      30.03S FOG
MEMPHIS        CLOUDY    72  68  87 CALM      30.04R
NASHVILLE      PTCLDY    70  66  87 S3        30.04S
OXFORD MS      FAIR      66  64  94 CALM      30.05S
ROME           PTCLDY    65  62  90 CALM      30.01S
SAVANNAH       CLOUDY    66  64  94 CALM      30.02S
TUPELO         CLEAR     71  67  87 CALM      30.01F
TUSCALOOSA     CLEAR     66  66 100 CALM      30.00F FOG
$$

...GULF COAST WEATHER...

CITY           SKY/WX    TMP DP  RH WIND       PRES   REMARKS
GULFPORT       CLEAR     73  70  90 CALM      29.99F
PASCAGOULA     PTCLDY    68  67  96 CALM      30.00F
MOBILE         PTCLDY    71  69  93 W3        30.02S
GULF SHORES    MOSUNNY   72  71  96 CALM      30.00S
DESTIN         PTCLDY    78  71  79 CALM      29.99F
PANAMA CITY    CLEAR     73  70  90 NW3       29.99F
APPALACHICOLA  CLEAR     72  71  97 NW5       29.99S
$$




USA.gov is the U.S. government's official web portal to all federal, state and local government web resources and services.